Wind_Speed
13 11 14 15 16 18 20 20 19 17 15 15 14 15 15 12 13 11 10 16 18 13 13 16 15 12 9 9 12 11 8 7 10 12 10 11 9 7 10 13 15 13 13 16 18 21 17 9 7 7 4 3 4 6 8 7 10 11 11 12 11 11 10 10 12 13 12 11 11 10 10 11 11 11 11 12 11 9 9 8 6 6 4 4 5 5
14 14 16 19 18 19 20 20 21 20 15 13 13 14 14 11 11 11 10 15 17 12 13 15 13 12 8 8 12 13 11 8 9 11 11 12 10 7 9 12 14 13 13 16 18 20 20 13 9 7 2 2 4 7 8 10 11 10 10 13 13 12 10 10 11 10 9 9 10 10 10 13 12 11 12 12 10 9 8 7 6 6 5 5 5 5
15 15 18 21 19 18 19 20 21 21 15 10 11 12 12 11 11 12 12 14 15 10 12 15 11 10 9 6 9 13 13 10 10 11 11 13 11 8 9 9 11 13 13 15 15 16 18 17 15 11 4 2 4 6 8 10 10 9 10 11 11 12 10 10 11 9 9 8 9 10 11 12 12 13 13 12 11 9 9 8 8 7 6 6 6 6
13 15 19 20 19 20 20 20 21 17 12 10 10 10 11 14 12 9 11 15 15 10 10 13 10 7 9 6 6 10 12 13 14 14 11 11 10 9 9 9 9 13 14 14 14 14 17 20 19 15 9 9 9 7 9 9 7 7 11 10 10 11 9 9 10 9 10 11 12 13 13 14 14 14 14 13 11 10 10 10 9 8 7 7 7 7
14 15 18 19 20 22 19 19 20 14 9 12 13 11 11 14 12 9 11 14 15 13 11 12 8 5 9 9 8 7 9 12 13 15 14 10 10 10 10 10 10 12 13 15 17 15 17 21 21 16 13 12 9 9 11 10 8 9 12 12 10 10 9 9 9 8 10 12 13 14 14 14 13 13 12 11 10 10 10 10 9 9 9 9 9 9
15 16 19 21 21 21 18 18 20 14 9 12 14 13 12 14 14 12 14 14 11 12 13 13 9 6 10 11 10 8 9 10 9 11 13 11 12 12 10 11 11 12 13 14 17 16 18 21 23 20 17 13 6 10 14 12 10 10 12 13 12 10 8 8 8 7 8 10 11 11 11 12 12 11 11 10 10 10 10 10 9 10 10 10 9 10
12 17 20 21 21 21 18 17 20 17 10 9 12 14 13 15 15 13 15 14 9 10 13 15 11 6 9 12 13 11 11 12 11 11 12 11 12 12 10 11 12 12 13 14 16 17 18 20 23 22 21 17 10 10 15 13 11 11 11 12 11 10 10 10 10 9 10 11 12 12 12 12 12 11 10 10 10 10 9 8 9 9 8 9 9 9
14 20 22 22 21 20 17 14 17 18 12 7 13 15 12 13 14 15 15 12 9 9 12 16 14 8 8 11 14 15 13 13 15 15 16 16 14 12 12 12 12 12 13 13 14 17 18 19 23 22 21 20 15 13 16 13 11 13 13 13 14 13 13 13 12 12 11 12 12 12 12 12 11 11 10 9 9 8 8 7 7 7 7 7 8 8
16 21 23 23 20 15 14 14 17 20 14 8 13 15 9 9 11 15 14 10 10 10 10 14 15 10 7 9 13 16 15 15 15 16 17 18 16 13 12 12 11 12 13 13 14 16 17 20 23 24 22 21 19 16 15 14 13 14 14 15 15 14 14 14 13 13 13 12 11 10 11 11 10 10 9 8 7 7 7 6 6 6 6 7 7 8
15 17 18 19 15 13 15 16 17 19 15 7 12 16 10 7 8 10 11 9 9 8 9 14 15 11 7 9 13 13 15 15 14 15 15 16 16 14 12 12 11 12 13 13 15 17 19 22 24 25 24 24 22 18 14 13 13 13 13 14 14 14 14 14 13 13 12 12 12 11 10 10 10 9 8 7 7 6 6 6 6 6 6 6 7 8
13 11 13 14 13 13 16 16 14 19 17 7 10 13 12 9 7 6 8 8 8 8 10 15 16 13 9 10 12 11 14 15 14 14 14 16 16 14 11 12 12 12 13 14 14 17 21 23 24 24 24 24 23 19 15 13 12 12 12 12 13 13 13 12 13 12 11 11 12 11 10 10 10 9 8 8 7 6 6 6 5 5 6 6 7 8
14 12 12 13 16 15 15 16 14 18 18 8 8 11 10 9 7 6 7 9 9 8 11 16 17 16 11 7 11 13 15 17 16 15 16 18 16 15 11 12 13 13 15 15 14 16 19 20 22 23 23 23 22 19 17 14 11 12 11 11 12 12 12 12 12 12 12 12 12 11 10 10 10 9 8 8 7 6 6 6 5 5 5 6 7 8
14 14 15 14 18 18 15 14 13 15 16 10 9 11 10 9 8 8 9 9 9 7 9 15 17 14 10 8 12 15 15 16 16 14 16 18 17 16 14 14 13 14 15 15 14 15 14 16 20 22 22 21 20 20 18 14 12 11 11 11 12 12 12 12 12 13 13 13 13 12 11 11 10 9 8 8 7 7 6 6 6 5 5 6 7 8
11 13 18 17 15 16 16 13 11 13 15 12 11 11 10 9 9 9 9 8 9 7 8 15 15 10 8 7 13 16 15 15 16 14 16 17 18 17 16 15 15 15 14 13 14 14 13 15 20 22 21 20 20 19 17 15 13 11 11 11 12 13 12 12 12 13 13 13 13 12 11 11 10 10 9 8 8 7 7 7 7 7 6 7 7 7
12 10 16 18 13 16 19 14 12 13 14 13 11 11 10 8 7 8 8 8 9 9 8 12 12 9 7 4 8 13 14 14 15 14 14 15 18 17 16 15 15 15 14 13 14 14 14 18 20 20 21 21 20 18 16 14 13 12 12 11 12 13 12 12 13 13 13 13 13 12 12 11 10 9 9 9 9 9 8 8 8 8 8 7 7 7
13 10 15 17 13 17 19 14 14 14 13 12 10 11 10 9 8 6 5 4 5 9 8 8 7 5 3 2 3 8 13 12 10 11 14 16 18 18 16 15 14 14 14 14 14 14 16 20 21 19 19 19 19 18 16 15 13 12 12 12 13 13 12 13 13 13 13 13 13 12 12 11 10 10 10 10 10 10 10 10 9 9 9 8 8 8
12 9 16 17 13 18 18 15 15 13 10 9 11 12 10 11 10 6 4 1 2 8 8 7 7 5 5 4 5 8 12 12 11 13 15 17 19 18 16 15 14 14 15 14 14 15 18 20 21 20 18 17 17 18 17 16 14 13 12 12 13 13 13 13 12 12 12 12 13 13 12 12 12 11 11 11 11 11 11 10 10 10 9 9 8 8
11 9 16 18 15 18 18 16 15 13 11 9 10 11 9 11 11 7 6 5 6 9 7 9 12 9 7 7 8 10 13 13 14 14 15 17 18 16 15 15 15 16 16 15 15 16 18 20 20 20 18 17 17 18 18 16 15 14 12 12 14 13 12 12 12 11 11 11 12 12 13 13 12 12 12 12 11 11 11 10 10 10 9 9 8 8
12 8 13 18 16 16 17 15 12 14 16 12 10 11 9 9 10 8 8 8 9 9 7 11 14 11 9 8 11 15 15 15 16 15 16 18 16 14 15 16 17 16 15 15 14 14 16 19 20 20 20 19 19 19 17 16 15 14 12 12 13 13 11 11 11 11 11 11 11 12 12 12 12 12 12 12 11 11 11 11 10 10 9 9 9 8
11 7 9 16 15 15 15 13 10 12 15 14 10 12 10 8 7 8 7 7 9 9 8 10 11 9 8 10 16 18 18 17 18 16 15 17 16 14 13 15 16 16 15 14 15 14 16 20 22 21 21 20 19 18 17 16 16 14 13 13 13 12 12 11 12 12 12 12 12 12 12 12 12 12 12 12 12 12 11 10 10 10 9 9 8 8
9 7 8 13 15 14 12 11 12 12 13 12 9 11 11 7 7 8 8 7 8 8 8 8 8 8 6 9 15 18 18 18 18 17 15 15 15 13 13 14 14 15 15 14 15 15 17 21 23 22 21 20 19 18 17 16 16 15 14 13 12 12 12 12 12 12 13 13 13 13 13 13 13 13 13 13 12 12 11 11 10 10 9 9 9 9
7 8 9 11 12 13 12 14 15 14 15 12 8 9 10 9 8 9 9 9 8 8 8 7 8 6 3 7 12 14 16 16 17 17 14 15 16 14 12 14 15 15 16 16 16 15 17 21 22 22 21 20 19 18 17 16 15 14 13 12 12 12 12 11 12 12 13 13 13 13 13 13 13 13 13 13 13 12 11 11 10 9 9 9 9 9
7 6 9 10 11 12 13 16 16 16 17 14 10 10 10 9 9 8 8 9 8 9 8 6 7 3 3 3 9 12 14 14 16 16 14 15 16 14 13 15 15 16 16 17 17 16 17 20 21 22 21 19 19 19 18 16 14 14 12 11 12 13 12 11 12 13 13 14 14 13 13 13 13 13 13 13 13 12 11 11 10 9 9 9 9 9
7 6 8 10 10 11 12 14 15 16 15 13 12 12 11 10 10 8 7 6 7 8 8 5 5 5 3 1 4 9 13 14 14 15 15 15 14 14 15 16 15 16 17 17 16 16 18 20 20 21 20 19 19 18 17 16 14 13 11 10 12 13 12 12 13 13 14 15 14 14 13 13 13 13 13 12 12 12 11 11 10 10 9 9 9 9
7 7 9 10 10 11 12 12 14 15 13 10 11 14 14 13 12 10 9 6 6 9 10 8 5 5 5 2 3 7 14 15 13 14 14 15 14 13 14 15 15 15 17 17 16 16 18 18 19 20 20 19 20 18 17 16 14 13 13 13 13 13 13 13 13 14 14 14 14 14 14 13 13 13 13 12 12 11 11 10 10 10 9 9 9 9
7 8 9 10 10 11 12 11 10 12 11 9 11 16 17 16 15 11 8 8 7 9 11 10 5 5 6 7 8 9 14 15 14 14 14 14 14 14 13 15 15 15 17 19 18 17 17 16 17 19 19 18 19 18 17 16 15 14 14 14 14 14 14 14 14 14 14 14 14 14 14 14 13 12 12 12 11 11 10 10 10 9 9 9 9 10
7 9 10 11 11 11 11 10 9 11 12 11 12 16 17 18 17 11 8 8 8 6 8 9 7 7 9 12 13 12 14 15 15 15 15 13 13 12 13 14 14 14 16 18 18 17 16 15 14 17 18 17 17 18 17 17 15 15 15 15 14 14 14 14 14 14 14 14 14 14 14 13 12 12 11 11 10 10 10 10 10 10 10 9 9 9
6 9 12 12 12 10 11 13 14 14 15 15 14 15 16 17 17 13 9 9 7 6 8 9 9 9 10 14 16 15 14 15 15 15 15 13 12 11 11 13 15 15 15 17 17 18 18 16 14 17 18 18 18 19 17 16 16 16 15 15 15 14 14 15 15 14 14 14 14 14 13 12 12 12 11 11 11 11 10 10 10 10 10 9 9 9
6 8 13 12 8 5 8 12 16 16 15 15 16 15 14 15 17 15 12 10 9 9 8 6 8 11 10 12 14 15 14 15 16 15 14 15 15 13 13 15 17 18 18 18 19 19 19 18 17 19 20 20 20 19 18 17 16 16 16 15 15 15 15 15 15 15 14 14 14 13 13 12 12 12 11 11 11 11 11 10 10 10 10 9 9 9
7 7 12 13 8 5 6 5 9 13 13 14 16 16 15 15 16 15 14 12 11 11 9 4 6 10 10 11 13 13 13 14 15 14 15 17 18 18 17 17 18 18 19 19 20 20 19 18 20 21 21 21 21 20 19 17 16 16 16 15 15 16 15 15 15 15 15 15 14 14 13 13 12 12 12 11 11 11 10 10 10 10 10 10 9 9
7 6 12 12 8 9 7 2 5 9 11 13 15 16 17 16 15 14 13 13 11 12 10 6 6 7 7 10 14 14 12 14 15 16 17 17 19 21 21 20 20 19 19 18 18 19 19 19 21 23 22 22 22 21 19 18 17 17 17 16 16 16 16 15 15 15 15 15 15 14 14 13 13 12 12 12 11 11 10 10 10 10 10 10 9 8
8 6 9 11 9 9 10 8 9 9 9 12 13 15 17 16 14 13 12 12 12 12 11 9 8 6 4 7 12 14 14 15 17 18 17 16 18 21 21 21 21 21 20 17 16 17 18 19 20 22 22 22 21 20 19 19 18 18 17 17 16 16 16 16 16 16 16 15 15 14 14 13 13 13 12 12 12 11 11 10 9 9 9 9 9 8
8 6 7 9 9 8 11 11 8 6 8 10 9 11 14 15 14 13 13 13 13 12 10 9 8 6 7 9 11 14 15 16 17 17 16 15 17 19 20 20 20 20 20 19 17 16 16 17 19 21 22 22 21 20 19 19 18 18 18 18 17 16 17 17 17 17 16 15 15 14 14 13 14 13 13 12 12 11 11 9 8 8 8 9 9 9
10 8 7 8 7 8 11 10 6 7 8 4 1 3 7 12 14 13 13 15 15 13 10 9 9 9 10 12 12 14 16 15 15 15 15 15 15 17 19 20 20 20 20 20 18 16 16 19 22 24 24 23 21 20 20 19 18 18 19 19 18 18 18 18 17 17 17 16 16 15 15 15 14 13 13 12 11 11 10 9 7 7 7 7 8 8
9 7 7 7 6 6 8 8 7 7 4 0 2 2 3 6 11 13 13 14 15 14 13 12 11 10 10 11 13 14 14 13 14 14 16 17 16 17 19 20 21 21 21 21 18 17 21 25 26 26 25 23 21 21 20 20 19 19 19 19 19 19 18 18 18 18 17 17 16 15 15 15 14 13 13 12 11 11 10 8 8 7 7 7 7 8
8 7 6 6 7 5 7 8 7 3 3 3 1 1 1 3 9 11 12 13 13 13 14 13 12 10 9 9 9 10 11 12 12 12 14 16 17 18 18 18 20 21 21 22 21 21 25 28 28 27 26 24 22 21 21 20 20 21 21 20 20 19 19 19 18 18 17 16 16 15 15 15 14 14 13 12 12 11 9 8 8 7 7 7 8 8
8 8 6 6 7 6 6 8 5 2 4 5 3 3 5 7 9 10 9 10 12 13 13 13 14 12 10 8 8 11 12 11 9 9 13 16 17 18 19 19 21 22 23 25 26 26 28 28 27 28 27 25 24 22 20 21 21 22 22 21 20 20 20 19 18 17 17 16 16 16 15 15 14 14 13 12 12 11 9 8 8 8 7 8 8 8
10 9 7 6 6 4 5 8 7 5 6 6 5 6 6 5 8 11 9 8 12 15 14 14 14 12 10 10 11 13 11 9 7 8 13 17 17 17 18 19 23 25 26 28 28 28 28 27 27 27 26 25 24 21 20 22 23 24 23 22 21 20 19 18 18 18 17 17 16 16 15 15 14 14 13 12 11 10 9 8 8 8 8 8 8 8
13 10 8 7 6 5 6 7 7 7 4 2 6 9 8 3 4 8 8 8 11 16 16 15 14 12 13 13 14 13 10 8 7 8 13 17 18 18 18 18 22 26 28 29 30 29 29 29 28 28 26 25 23 21 21 23 24 24 23 21 21 20 19 19 18 18 18 17 17 16 15 15 14 14 13 12 10 9 9 8 8 7 8 8 8 8
10 9 8 8 8 7 7 7 6 5 2 6 8 9 8 6 5 7 7 5 8 14 16 15 14 14 15 15 14 12 9 5 3 8 15 18 18 18 18 18 21 25 27 29 29 30 31 30 30 28 26 24 23 22 23 24 24 23 22 22 21 19 19 19 18 18 18 18 17 16 15 14 14 13 12 11 10 9 8 8 8 8 8 8 8 8
8 7 8 9 9 8 8 8 6 3 4 6 8 9 9 7 6 7 4 2 1 7 12 13 14 14 15 15 12 9 5 1 3 11 19 20 19 19 20 22 25 28 30 30 29 30 31 30 29 28 26 24 24 24 24 24 23 23 22 22 21 19 19 19 19 19 18 17 17 16 15 14 13 12 11 10 9 8 8 8 8 8 8 9 9 8
8 8 8 8 9 8 7 8 8 4 2 5 9 10 8 6 4 3 1 3 3 3 7 9 11 13 13 12 9 5 4 6 8 16 21 20 19 19 20 24 27 29 31 31 30 31 30 28 28 27 25 24 25 24 23 24 24 23 22 22 21 20 20 20 20 19 18 18 17 16 15 14 13 11 10 9 9 8 8 7 7 7 7 8 9 9
7 8 8 7 7 7 7 8 8 5 4 8 11 9 6 5 1 1 1 2 1 3 5 4 7 10 11 9 7 6 7 9 13 17 19 19 19 20 21 25 27 27 29 30 31 32 30 28 27 26 25 25 25 24 24 24 24 23 22 22 22 21 21 20 20 19 19 18 17 16 15 14 12 10 9 8 8 8 8 7 7 6 6 7 7 8
7 7 6 6 7 7 7 6 4 1 4 8 7 4 3 3 3 3 1 3 3 3 5 4 5 8 9 9 8 8 8 10 13 15 17 18 19 20 21 25 26 27 28 29 30 31 29 28 27 26 25 25 24 24 24 25 24 24 23 23 22 22 21 20 20 19 19 18 17 16 15 13 11 10 9 9 9 8 7 7 6 6 6 6 6 7
3 2 2 1 3 4 1 2 2 2 5 5 3 4 7 7 4 3 2 3 4 3 3 5 7 9 9 10 10 8 9 11 13 15 16 17 18 19 21 24 26 28 28 28 29 28 28 28 28 26 25 25 24 24 25 24 25 25 24 24 23 22 22 21 20 19 18 18 17 16 15 13 12 10 9 9 8 8 7 6 5 6 6 6 6 6
2 1 1 2 3 4 1 3 3 3 5 5 4 5 6 5 4 3 3 3 4 3 2 4 7 9 10 11 10 8 9 11 14 15 16 16 17 19 21 23 26 29 30 29 29 28 27 27 28 27 26 25 25 24 24 24 25 25 25 24 23 22 22 21 20 19 19 18 17 16 15 14 12 10 9 8 8 7 6 6 5 5 5 5 6 6
5 4 4 5 5 3 2 2 2 2 3 4 4 5 5 4 3 2 3 3 4 3 3 5 7 9 10 11 11 9 10 14 16 16 15 16 17 19 20 22 26 29 30 30 30 30 28 27 27 27 27 26 25 24 24 24 24 24 24 24 23 22 21 21 20 19 18 17 16 15 14 13 12 11 10 9 8 7 6 5 5 5 5 5 4 4
4 3 5 6 7 5 2 1 2 2 2 3 4 4 4 5 5 2 2 2 3 3 3 4 7 9 9 10 11 11 12 16 18 17 15 16 16 17 19 23 27 30 30 30 32 31 29 28 27 27 27 27 25 24 24 24 24 24 24 23 23 22 21 21 20 19 18 17 16 15 14 13 13 11 10 9 8 7 6 6 6 6 6 6 5 5
3 3 4 5 6 6 4 4 4 4 4 5 5 3 3 5 5 5 4 3 3 4 4 4 6 8 8 9 11 12 12 15 16 16 16 16 16 17 21 25 29 31 30 30 30 30 29 28 29 28 27 26 25 25 25 24 24 24 24 23 23 22 21 20 19 18 18 17 15 14 14 13 12 11 10 9 8 7 7 7 7 8 8 7 6 5
4 4 2 4 6 4 2 2 3 3 2 3 3 4 4 4 5 5 5 4 4 5 5 6 7 8 8 9 9 10 12 13 15 16 16 15 16 20 24 27 30 31 30 30 29 29 28 28 29 29 28 26 26 25 25 24 24 24 24 23 23 22 21 20 19 18 17 16 15 14 14 13 11 11 11 10 10 9 9 8 7 8 8 6 5 6
1 2 2 1 2 0 2 3 2 1 1 3 4 2 3 4 4 4 4 4 4 5 6 7 8 8 8 8 9 10 11 13 16 17 15 15 18 23 26 30 31 30 29 30 29 28 28 29 30 29 28 26 26 26 25 25 25 24 23 23 23 22 21 20 18 17 16 15 15 15 14 12 11 11 11 11 11 12 11 10 9 8 7 6 6 5
Wind_Direction
194 198 203 207 206 202 204 206 215 223 215 208 198 203 218 207 206 204 168 172 181 190 201 204 198 168 162 173 150 148 179 177 152 156 163 164 164 158 150 142 139 136 128 124 124 132 142 161 161 136 143 177 145 132 134 143 145 141 154 163 163 171 169 167 175 175 169 160 156 157 145 133 127 122 116 107 100 102 100 95 94 90 79 66 59 56
197 208 208 205 207 203 203 207 213 222 226 220 205 199 215 218 198 174 148 168 181 196 207 200 187 163 161 173 149 152 174 181 169 163 167 172 167 164 157 143 135 127 123 129 127 134 141 135 127 123 123 196 141 123 131 157 161 150 162 171 167 170 173 180 189 180 167 163 154 147 134 126 119 114 111 105 100 101 97 90 85 81 70 63 55 44
201 213 208 201 206 205 201 205 210 218 224 227 218 202 204 216 199 161 150 176 185 201 203 183 171 156 155 168 165 165 166 172 182 174 171 173 170 174 164 140 131 128 128 132 131 135 131 116 113 115 109 154 149 141 146 163 168 158 166 173 162 161 172 185 186 169 157 150 131 120 117 115 107 107 111 109 108 107 101 91 82 76 61 54 46 32
202 208 205 199 203 207 201 202 208 213 215 221 221 205 200 208 201 161 157 182 189 206 205 176 165 160 152 153 189 175 156 168 179 168 167 170 168 177 163 141 136 134 129 126 125 123 112 106 108 113 124 143 147 151 155 163 176 168 161 160 154 156 167 174 168 152 141 134 120 111 109 107 103 106 109 105 101 95 90 84 73 65 54 46 39 30
204 199 201 200 201 206 201 197 205 206 202 216 220 211 205 201 190 167 167 181 191 208 207 179 166 173 169 168 187 179 154 166 166 157 165 168 168 174 155 145 143 131 128 125 121 118 111 108 114 120 127 137 145 156 160 161 166 163 154 151 152 155 158 155 147 137 131 125 118 113 111 107 103 101 98 91 87 80 73 69 63 58 50 43 37 30
206 194 196 201 199 203 200 197 202 201 194 209 220 223 217 201 185 174 174 175 189 204 196 186 187 184 183 181 180 178 167 166 159 161 172 169 170 174 161 159 152 133 129 124 117 118 120 118 119 116 109 108 123 149 148 145 145 146 144 143 142 140 135 123 115 116 118 113 107 107 107 103 98 91 82 76 79 79 70 63 61 55 42 35 35 29
204 194 194 200 196 197 202 201 196 196 202 203 208 220 232 218 194 175 177 181 193 198 185 194 206 188 184 190 184 184 184 177 174 174 179 183 181 178 174 169 158 142 131 124 121 123 125 121 115 107 102 101 93 104 115 116 119 115 111 115 110 101 96 88 88 91 95 97 93 91 91 93 97 96 90 82 81 82 78 71 63 53 43 37 34 26
198 195 192 196 195 195 203 200 188 193 211 206 189 201 234 237 198 174 183 192 196 192 184 197 212 208 196 194 184 186 193 188 184 180 179 186 187 180 172 162 159 150 134 129 128 124 124 120 115 112 110 110 100 91 95 96 96 91 87 88 83 79 76 72 72 73 76 81 83 87 89 90 96 100 96 90 85 81 78 73 64 58 56 45 33 23
196 200 192 191 195 195 199 196 185 191 213 220 182 181 214 239 188 174 192 202 200 202 195 198 209 219 208 189 181 185 195 194 188 188 184 183 185 177 164 157 158 150 138 135 129 123 125 125 122 121 119 114 107 98 96 94 89 85 84 85 84 81 76 71 69 69 70 75 80 89 95 94 96 98 99 95 89 84 83 78 67 60 53 39 33 31
194 199 187 185 193 193 195 198 186 189 209 214 171 168 184 211 185 182 204 207 200 209 210 197 202 221 212 185 183 185 196 196 188 192 190 185 181 165 153 157 155 145 139 135 129 129 133 132 129 125 120 114 109 105 102 100 98 98 96 92 90 86 81 77 75 74 73 77 85 91 97 104 104 101 103 102 94 88 88 81 64 56 51 42 37 37
172 168 178 188 202 199 196 198 185 190 203 178 155 174 183 197 200 198 217 220 204 203 213 204 200 216 223 188 178 188 200 195 190 191 188 188 175 148 149 165 155 143 134 131 133 136 138 135 130 125 120 118 119 120 118 116 116 112 105 99 93 88 84 81 78 78 75 74 80 85 89 98 99 95 94 95 89 76 74 71 63 61 60 54 42 36
159 166 188 198 208 204 195 194 184 192 200 170 162 190 182 185 200 200 214 227 223 208 208 209 201 208 226 196 175 194 199 193 194 191 186 186 163 137 158 173 155 140 130 133 139 139 140 136 129 124 122 123 126 127 126 125 122 112 106 102 93 85 81 78 76 78 80 79 80 83 84 84 84 86 86 86 85 80 76 73 73 72 63 56 45 36
173 188 192 193 205 204 193 188 180 190 199 184 182 196 183 180 190 197 203 210 224 222 206 208 203 205 229 210 182 189 190 191 199 194 190 184 152 140 168 170 149 138 131 138 144 142 143 136 129 127 127 129 130 129 130 127 121 115 108 98 89 83 78 76 76 77 81 84 84 86 87 85 85 87 89 91 90 88 85 79 77 76 67 59 49 38
180 194 191 190 197 199 198 191 178 185 195 191 190 194 189 186 184 194 201 197 212 224 211 209 203 202 228 203 173 180 186 194 199 194 194 180 147 147 167 159 145 139 134 142 147 146 145 136 134 135 134 135 132 130 130 127 123 116 106 95 88 84 79 78 78 79 82 84 84 87 88 90 93 93 92 92 90 87 86 83 78 77 74 67 57 44
182 188 188 190 184 190 202 200 180 182 192 195 197 202 204 199 184 191 201 196 202 207 208 218 210 197 210 173 151 174 182 192 197 191 185 163 142 148 157 150 146 141 139 147 147 146 145 140 138 137 136 137 134 130 128 123 120 112 104 96 89 85 82 82 82 82 84 82 82 84 86 90 95 95 92 87 86 85 86 85 80 77 76 72 64 52
191 189 181 186 183 186 198 200 189 187 191 193 201 211 213 204 184 182 211 221 209 200 194 215 216 176 151 107 132 168 169 175 177 160 155 148 145 153 153 149 152 149 149 152 149 148 146 142 139 136 135 136 133 130 125 121 117 111 104 96 91 89 88 89 87 86 85 83 83 83 83 88 93 94 94 90 89 88 86 85 82 79 76 75 72 62
194 181 168 176 183 187 194 200 197 196 190 182 201 212 209 211 202 181 193 281 236 210 190 192 199 154 124 158 173 168 164 163 144 128 140 148 153 158 154 150 157 160 157 153 150 148 145 142 138 135 134 134 132 127 122 120 115 110 105 99 96 95 94 95 93 90 88 87 87 86 87 91 94 95 94 92 91 89 86 84 82 80 77 76 75 69
197 165 158 175 186 185 193 205 203 205 204 188 196 204 200 215 220 202 192 188 207 215 188 187 203 190 177 185 176 175 178 170 154 148 158 161 161 164 160 156 162 163 155 149 149 145 141 139 135 132 133 130 128 124 119 116 112 110 107 100 99 100 98 99 98 95 94 91 88 88 90 92 93 93 92 90 90 89 87 85 83 82 80 76 75 74
199 169 163 184 187 175 187 206 203 203 216 217 198 194 199 210 212 209 206 193 200 212 193 196 209 206 198 183 170 182 189 178 164 164 171 170 168 169 164 161 162 156 147 145 147 142 137 137 134 133 134 130 126 122 118 116 113 110 107 102 104 104 102 102 102 100 96 93 91 90 90 90 89 90 90 89 90 89 88 86 85 82 80 78 77 76
196 174 169 185 181 170 182 203 199 188 210 226 211 199 208 213 203 203 209 201 199 206 202 200 206 211 206 178 171 184 190 180 170 169 175 174 172 170 164 162 157 148 144 145 146 144 140 137 136 135 134 130 125 122 120 118 114 110 108 108 111 111 109 106 103 101 97 94 93 91 90 89 88 88 89 90 90 90 90 88 87 84 83 83 78 75
192 174 174 180 177 178 184 197 199 185 191 212 212 202 202 196 195 202 206 212 209 203 201 201 207 217 201 167 173 183 185 181 173 168 172 175 172 168 160 155 150 147 150 149 147 147 142 138 137 137 135 130 126 123 122 119 117 116 114 115 117 116 113 108 103 101 99 97 95 93 92 91 90 90 89 90 91 92 92 91 89 86 84 83 77 74
182 175 180 180 180 189 190 188 198 198 192 197 202 205 201 188 194 205 205 209 216 215 209 208 213 211 148 149 173 182 182 180 172 165 167 171 171 164 152 146 145 150 156 154 150 147 142 140 140 138 135 132 128 126 125 124 123 123 124 127 124 118 115 110 106 103 100 99 98 96 95 94 93 94 92 92 92 91 92 92 90 87 85 81 76 74
187 188 180 182 185 190 186 184 199 210 203 198 201 209 209 199 199 209 205 197 211 228 223 219 215 179 83 141 177 180 181 175 167 162 161 169 170 158 146 147 149 154 155 152 149 143 139 141 142 140 138 135 132 130 130 129 130 131 136 138 124 115 116 114 109 106 103 103 101 98 99 97 96 96 95 93 92 90 90 90 88 87 84 82 78 74
198 204 176 179 180 181 184 184 197 215 213 202 203 210 215 209 202 214 223 201 204 224 219 215 208 161 111 297 205 181 170 160 162 164 161 168 169 152 148 154 154 153 152 149 144 140 140 143 144 141 140 139 135 134 134 134 137 138 138 133 121 116 119 117 113 112 108 106 106 103 101 100 99 98 96 93 91 89 88 87 85 84 81 79 77 72
190 204 183 179 175 177 187 184 188 207 214 207 203 209 216 216 203 207 231 228 211 220 217 215 208 151 136 179 215 170 152 151 164 168 164 167 164 153 154 159 155 150 150 149 144 142 146 148 146 145 143 141 137 137 139 141 144 142 134 130 129 127 124 120 117 115 112 110 110 107 104 103 102 99 96 93 91 88 87 84 83 80 77 76 74 70
188 208 190 183 184 185 189 186 185 194 201 208 208 204 210 217 211 203 216 229 221 216 220 220 196 129 135 171 186 165 151 155 162 163 164 163 157 156 160 157 154 152 151 150 147 147 150 150 147 144 140 138 138 141 146 148 148 142 136 135 136 132 128 125 121 117 115 113 112 110 108 106 103 100 97 94 92 89 86 83 82 79 76 75 74 72
200 217 198 192 200 197 188 187 192 193 193 203 208 205 205 211 217 213 207 221 224 210 223 227 196 158 154 170 180 171 160 160 159 159 160 154 149 156 158 152 151 152 151 149 148 147 148 146 137 131 130 135 142 147 150 152 150 144 139 139 137 134 131 128 124 120 116 115 114 113 111 108 105 102 99 96 93 89 85 83 80 79 76 74 74 75
214 212 201 205 208 206 202 194 190 193 197 202 205 208 207 205 213 219 212 215 214 203 219 218 190 173 165 171 179 175 165 163 162 160 157 153 155 158 153 148 146 148 151 151 150 150 149 144 133 132 139 145 149 151 152 152 150 144 142 141 138 136 133 130 127 122 119 119 117 114 112 109 105 102 99 97 93 89 86 83 80 78 78 75 74 73
218 199 200 211 203 217 240 211 191 190 197 201 204 208 207 205 209 214 217 218 211 214 230 216 184 180 167 168 179 175 168 165 160 155 153 154 158 158 154 153 152 155 158 155 153 152 150 147 144 145 150 153 153 154 153 153 152 146 143 143 140 137 134 132 128 124 122 120 117 115 112 108 104 101 98 95 90 87 85 82 81 80 80 79 76 74
222 198 199 206 190 206 260 238 188 191 198 200 204 206 207 209 211 210 215 218 215 225 241 241 212 200 175 170 180 176 167 157 147 149 158 160 161 160 160 160 160 160 159 158 157 154 151 152 150 151 153 154 155 155 152 153 155 149 145 145 142 138 136 132 128 125 124 120 117 117 113 109 106 101 97 92 88 86 83 81 80 80 80 80 79 76
217 201 194 202 199 197 208 207 189 204 213 210 207 206 205 209 212 211 212 211 211 224 226 205 206 211 186 176 175 166 158 152 150 161 170 169 167 164 163 164 164 162 158 157 156 153 153 156 154 154 155 155 156 155 154 154 155 151 148 147 143 138 135 132 128 126 124 121 120 118 113 110 107 102 97 93 88 85 82 79 79 78 78 80 78 78
209 211 191 201 213 197 188 198 204 209 224 226 220 213 207 207 209 208 210 210 209 216 214 201 197 192 170 165 157 152 158 161 164 174 178 174 171 170 168 166 165 165 161 155 151 152 156 157 155 154 155 155 156 156 155 155 154 152 150 146 140 135 133 132 130 128 125 123 121 117 113 110 106 100 94 90 88 85 81 79 78 79 80 80 78 78
199 209 190 197 212 199 189 198 200 201 220 226 224 218 214 212 211 208 208 208 209 213 211 206 207 188 164 161 154 158 170 172 171 179 182 175 172 174 174 169 165 165 162 158 155 155 154 151 151 153 155 157 158 156 155 156 155 152 146 140 136 134 134 133 131 128 125 123 119 115 112 109 104 99 95 91 91 90 88 86 85 84 85 84 82 80
194 203 191 188 205 199 185 184 192 207 216 220 227 239 230 221 213 210 210 204 204 213 215 210 219 206 176 168 171 175 180 178 173 175 179 176 175 180 180 174 167 163 160 159 157 154 152 151 152 155 158 158 157 156 155 155 152 145 138 135 136 136 136 134 130 126 124 121 118 116 114 111 108 105 103 101 100 98 96 96 94 94 94 93 89 85
195 205 191 186 205 191 164 172 206 215 207 85 20 19 343 247 221 217 221 212 202 207 213 214 221 213 182 179 188 183 175 169 165 169 176 175 176 181 179 172 167 162 160 160 157 154 158 157 156 157 157 156 156 156 155 154 149 142 136 135 137 137 135 132 129 127 126 123 122 122 119 116 114 111 109 107 104 101 99 99 100 100 98 96 92 87
193 208 201 197 203 178 156 187 215 196 125 125 163 107 77 228 216 214 221 215 202 206 213 213 219 216 195 191 188 168 154 153 157 170 178 175 175 180 179 171 167 164 163 162 160 159 160 160 158 156 155 154 156 157 156 153 148 140 136 136 137 135 134 133 131 129 129 127 127 125 123 121 118 114 111 108 106 105 104 104 104 103 101 99 95 90
197 209 210 205 205 197 193 200 196 116 149 170 172 182 190 199 200 203 213 209 203 211 214 210 214 210 192 175 157 143 142 149 160 174 178 178 179 180 179 175 169 166 163 162 160 158 159 158 156 153 151 155 159 159 155 151 145 139 136 136 137 137 137 135 134 133 132 130 129 127 126 124 121 117 115 112 110 109 108 108 104 101 101 99 95 93
194 210 218 206 201 219 232 215 201 211 223 207 174 160 172 204 205 199 212 218 207 210 212 212 213 201 173 158 152 145 145 160 181 183 177 179 179 176 178 177 169 166 163 160 158 156 155 155 152 151 153 157 159 158 154 149 143 137 136 138 140 141 141 138 137 136 134 132 131 130 129 127 124 121 119 115 114 114 113 112 107 102 101 99 95 95
193 205 222 214 201 214 235 229 215 222 235 166 145 151 157 175 177 180 210 228 203 198 206 211 207 188 169 163 157 153 160 185 199 184 173 175 174 173 178 174 165 164 163 160 159 156 153 153 153 153 157 159 157 155 152 147 142 139 139 142 144 144 143 141 139 138 136 134 133 131 130 128 125 123 121 118 118 117 114 112 107 104 104 101 97 95
199 203 217 219 214 210 218 232 230 223 137 107 134 153 154 149 149 173 203 218 186 187 198 204 197 183 172 166 161 167 182 207 216 167 162 167 169 171 177 172 163 163 162 159 158 154 151 153 156 158 160 158 154 154 152 147 142 141 142 145 146 146 144 142 140 138 136 134 133 131 129 128 126 124 124 122 120 118 114 110 105 101 97 93 92 90
196 201 213 220 219 207 208 230 237 200 114 123 146 145 137 145 174 196 196 32 68 189 191 194 191 180 172 169 171 180 181 47 71 140 151 161 167 165 167 164 161 162 160 157 156 153 152 155 159 159 158 155 151 153 152 147 144 144 146 147 147 146 144 142 141 139 137 135 134 133 130 128 127 125 125 124 122 118 115 111 108 104 97 89 87 84
189 198 207 216 224 217 206 223 233 215 153 148 142 132 144 171 187 190 139 24 346 194 171 181 185 174 170 173 174 166 114 87 116 140 150 161 166 161 159 157 158 161 158 153 153 155 155 156 157 156 154 152 152 153 152 148 146 147 148 148 147 146 144 142 142 141 139 138 136 134 132 130 130 130 129 129 128 121 117 115 110 107 101 93 89 82
177 190 204 203 215 228 215 213 227 229 181 165 150 142 175 202 139 52 110 72 33 136 143 165 170 160 163 164 146 114 104 116 135 145 151 159 159 157 158 158 159 159 153 148 152 158 156 151 152 154 154 152 153 154 152 150 149 149 149 148 146 145 144 144 144 143 142 139 136 135 135 134 135 137 137 137 135 127 122 119 113 106 101 94 90 85
176 191 214 197 194 220 220 212 241 312 139 161 162 142 135 118 59 351 358 95 92 126 138 144 147 149 158 155 137 121 123 132 144 153 158 159 154 152 158 161 157 153 150 151 156 157 153 148 149 153 154 153 154 154 153 152 151 150 149 147 145 145 145 146 147 144 141 140 139 139 140 141 143 144 143 141 138 132 126 122 114 102 95 86 81 82
197 212 257 210 215 249 229 121 38 41 118 126 85 78 100 99 69 11 21 89 106 119 131 142 146 150 156 152 141 136 139 146 153 155 153 151 149 151 159 160 152 148 153 158 157 154 151 149 149 151 152 154 154 153 154 155 153 150 148 147 147 148 148 148 148 145 144 144 144 145 146 148 149 148 148 147 142 135 129 124 116 102 94 86 76 73
232 258 287 258 268 305 354 122 114 98 121 115 83 84 100 99 81 48 32 67 92 96 109 130 141 151 156 150 144 147 153 152 150 148 144 146 153 160 162 155 149 152 159 158 154 153 152 149 150 152 152 152 153 154 156 156 153 150 148 148 149 150 150 150 148 147 148 148 149 151 153 152 151 149 149 149 142 133 125 114 108 101 95 93 84 71
174 194 224 222 217 242 258 203 164 127 140 151 139 122 119 127 116 69 37 62 83 89 100 121 141 154 156 151 148 152 155 149 144 146 151 158 166 168 163 155 156 162 164 158 153 154 154 151 153 153 151 151 154 155 156 155 153 150 148 149 152 152 151 150 149 150 152 151 153 157 156 152 151 150 150 149 141 132 125 114 104 95 80 77 82 77
137 198 235 230 220 221 231 174 142 141 151 165 168 154 139 143 144 122 77 83 98 107 108 127 150 155 154 155 152 151 154 153 149 154 164 171 171 167 162 161 165 167 164 157 154 155 155 155 155 153 151 152 155 156 155 154 152 151 150 152 154 153 151 151 152 153 154 154 156 158 154 153 156 155 151 149 139 124 114 106 99 92 75 56 48 51
138 227 230 222 225 222 198 168 172 183 184 180 185 178 124 121 134 135 124 120 127 129 132 150 156 151 154 159 154 151 160 163 161 164 171 174 170 165 165 168 169 168 162 156 156 157 156 156 155 152 151 153 155 156 156 154 153 153 153 154 155 154 152 153 154 155 156 157 158 156 152 157 161 156 146 142 130 107 91 87 88 90 86 74 66 68
211 249 245 228 235 229 173 159 186 210 203 168 159 157 139 129 136 143 145 151 150 142 147 153 147 145 159 170 166 164 168 169 167 170 174 174 168 166 168 170 169 165 160 156 156 157 156 154 152 151 151 154 156 156 154 153 154 156 156 156 156 155 154 154 156 158 160 160 158 156 157 161 160 150 144 139 126 111 103 101 100 97 95 93 94 94
256 342 14 268 240 106 39 8 355 346 91 75 63 97 149 154 165 170 169 169 165 158 157 157 151 152 167 177 176 175 175 171 168 170 173 173 169 167 170 172 169 164 157 154 156 156 153 152 152 152 152 153 154 154 154 154 156 158 158 157 157 156 156 158 159 161 163 162 160 160 162 161 156 151 150 147 139 134 131 128 123 114 106 103 100 94
Height
738 745 744 738 734 731 730 729 729 722 718 720 724 730 726 722 723 713 713 715 716 730 734 727 730 739 744 742 745 756 758 755 758 764 766 767 769 769 767 764 768 774 779 785 787 788 792 797 798 798 801 804 805 806 807 807 808 811 814 815 816 816 816 815 815 816 816 814 815 817 818 817 817 817 817 818 819 821 823 824 825 826 827 827 828 828
737 742 735 729 727 725 727 727 726 722 718 718 721 727 725 720 718 713 716 717 716 729 731 723 730 740 744 742 744 753 759 760 759 763 767 766 767 769 769 769 770 775 780 784 787 789 791 796 799 800 803 807 808 808 809 808 808 811 815 816 816 816 817 818 818 817 816 815 816 816 815 815 816 817 818 819 821 822 824 825 826 827 827 828 828 829
739 736 727 724 724 723 725 724 724 723 721 721 719 722 726 719 713 715 720 720 719 727 728 725 736 744 744 744 743 746 757 763 760 760 763 764 766 769 770 773 775 778 781 783 786 789 791 795 798 801 806 810 810 811 811 810 810 813 816 817 817 816 818 821 821 818 816 816 815 814 814 814 815 817 819 821 822 823 824 825 826 827 828 828 829 829
737 730 722 721 721 722 724 723 724 724 724 726 721 721 724 714 712 723 728 724 721 723 722 725 738 746 746 749 746 741 751 758 756 758 761 761 765 768 769 773 777 779 782 785 787 791 794 794 796 802 808 809 810 812 813 813 814 815 816 817 816 816 819 822 821 817 816 815 814 813 813 814 815 817 819 821 822 823 824 825 826 827 828 829 830 830
728 723 718 718 721 721 723 725 725 726 730 728 720 718 717 710 711 722 728 725 724 723 719 727 750 756 750 755 753 743 747 752 751 755 760 761 764 766 769 773 776 779 783 787 789 792 795 794 796 803 808 808 809 812 814 815 815 815 815 817 817 818 819 820 818 816 815 814 813 813 813 814 816 817 819 820 822 823 824 826 827 828 829 830 831 831
721 716 715 719 720 718 722 725 723 726 732 731 721 712 709 708 710 717 723 728 736 737 723 729 762 769 752 753 755 748 749 753 755 757 759 762 764 766 769 772 774 779 783 787 790 794 796 796 797 802 807 809 811 812 814 816 817 817 818 819 820 820 820 819 817 816 815 814 813 813 813 815 816 818 820 821 823 824 825 827 828 829 830 831 832 832
714 710 711 716 719 720 723 723 719 722 730 732 721 711 708 705 707 717 723 731 741 740 724 724 751 766 757 751 751 750 752 754 760 765 764 764 765 766 769 771 773 778 783 788 792 795 798 798 797 800 805 808 812 814 815 818 820 821 821 821 821 820 819 818 817 816 815 814 814 814 815 816 818 820 821 823 824 826 827 829 830 831 832 832 833 833
708 709 712 714 717 721 722 719 717 719 727 726 713 710 714 707 708 719 725 730 730 727 727 725 734 754 759 751 744 748 754 754 757 762 764 763 764 765 767 771 774 777 783 789 793 795 797 797 796 800 804 807 812 815 816 819 821 821 820 820 819 819 818 817 816 816 815 815 815 815 817 818 819 821 823 824 825 827 828 830 831 832 833 834 834 835
705 709 709 711 716 719 718 715 714 719 725 717 705 711 718 712 712 719 724 727 721 725 739 734 730 748 757 749 743 747 754 756 754 754 755 757 761 765 768 772 774 777 783 788 792 795 796 797 798 800 803 805 810 814 817 819 820 820 820 820 820 820 819 818 818 817 817 817 817 817 818 819 821 822 824 826 827 828 829 831 832 833 834 835 835 836
703 702 702 709 716 717 715 711 709 717 720 708 703 713 720 717 716 720 724 723 722 737 747 736 731 746 753 746 745 750 753 754 753 750 749 751 756 765 770 772 774 776 782 787 790 793 795 798 799 800 801 804 808 813 818 820 820 821 821 821 822 821 821 820 820 819 819 818 819 819 820 821 822 824 825 827 828 829 831 832 833 834 835 836 836 837
696 700 704 710 714 711 710 708 707 714 713 706 710 718 724 725 721 724 724 720 733 752 748 731 728 741 748 739 738 747 747 745 746 746 747 747 752 765 771 771 774 777 782 788 790 792 796 799 799 800 802 803 807 813 819 821 821 822 822 822 822 821 821 821 820 820 819 820 820 821 822 822 824 825 826 828 829 830 832 833 834 835 836 837 838 838
701 711 712 709 708 705 706 709 709 711 708 711 720 723 730 735 733 737 735 730 745 754 739 726 723 735 747 738 733 737 735 734 739 741 744 746 753 769 773 769 773 779 784 789 790 794 798 799 799 801 803 805 809 813 818 820 821 822 822 822 822 821 821 821 820 820 820 821 822 822 823 824 825 827 828 829 830 831 833 834 835 835 837 838 839 839
708 712 710 708 705 700 707 713 714 714 711 717 723 724 737 748 751 757 752 747 751 744 728 720 722 736 740 728 725 730 729 730 731 734 738 742 754 770 771 768 774 779 785 789 790 795 798 798 799 801 804 807 810 813 816 819 820 822 822 821 821 820 820 821 821 821 822 822 823 824 825 826 827 828 830 831 832 833 834 835 835 836 837 839 840 840
715 712 707 710 706 700 704 709 717 720 715 718 722 724 736 747 761 770 759 753 755 742 724 714 721 739 735 718 717 723 726 726 725 728 732 736 753 766 765 767 774 779 786 789 790 794 796 797 799 801 804 808 811 813 815 817 819 821 821 820 820 820 820 821 822 823 824 824 825 826 826 828 829 830 832 833 833 834 835 836 837 838 839 840 841 841
723 723 709 707 706 702 700 700 707 714 715 716 713 716 725 729 748 764 754 751 755 742 729 721 723 736 737 726 717 715 719 720 719 723 726 734 751 762 764 769 775 780 785 789 790 793 795 797 799 801 805 808 811 813 815 816 818 819 820 820 820 820 821 823 824 825 826 826 827 828 829 830 831 832 833 834 835 836 837 837 838 839 840 840 841 842
717 717 701 698 699 699 702 698 696 707 716 715 708 714 721 714 723 742 741 737 740 739 737 732 725 725 731 730 719 713 716 717 719 724 728 740 752 760 766 771 775 780 784 787 790 792 795 797 800 803 806 809 811 813 814 815 817 818 819 820 820 822 823 825 826 827 828 829 830 830 831 832 833 834 835 836 836 837 838 839 839 840 841 841 842 843
711 709 696 698 701 698 702 700 694 702 712 714 715 717 711 699 705 730 741 734 735 745 743 734 730 730 736 737 725 719 721 721 728 735 738 745 753 759 766 771 776 779 782 786 788 791 794 797 800 804 806 809 811 811 813 814 816 818 819 820 822 824 826 827 829 830 831 831 832 833 833 834 835 835 836 837 838 838 839 840 840 841 842 843 843 844
700 705 700 701 708 702 698 700 696 696 700 710 719 711 701 701 702 717 739 746 746 750 742 735 737 738 743 744 733 728 729 728 734 741 743 748 754 759 765 769 774 776 779 785 788 790 794 796 800 804 807 810 810 811 812 814 816 818 820 821 823 826 828 830 831 832 833 833 834 835 835 836 836 837 837 838 839 839 840 841 842 843 844 844 845 845
688 706 709 701 705 703 698 703 707 700 694 700 705 699 702 719 720 717 732 748 753 752 746 743 739 732 733 737 734 734 733 730 735 741 743 748 754 759 764 768 772 775 780 786 788 790 793 796 800 803 807 809 810 811 813 815 817 819 821 822 825 828 830 832 833 833 834 835 835 836 837 837 837 838 838 839 840 841 842 843 844 844 845 845 846 846
682 705 717 702 697 703 703 707 713 711 702 697 697 695 698 710 718 719 724 733 742 749 749 748 745 732 720 719 726 730 727 726 734 740 742 748 755 760 763 766 770 776 781 785 788 791 792 795 800 803 806 808 809 811 814 816 818 820 823 825 826 829 832 834 834 834 835 836 837 838 838 838 839 839 840 840 841 842 843 844 845 846 846 847 847 847
683 701 717 707 699 706 708 705 705 708 708 706 705 704 702 705 711 717 719 718 724 738 745 750 750 732 708 706 716 721 720 722 729 737 743 748 755 760 763 766 771 777 782 784 788 791 792 795 799 802 805 807 810 812 815 817 819 822 825 827 828 831 833 835 835 835 836 837 838 839 839 840 840 841 841 842 843 844 844 846 846 847 848 848 848 848
688 699 710 711 707 708 705 697 695 697 699 704 708 706 704 707 713 725 730 717 711 721 729 737 744 728 705 703 711 713 716 720 726 736 744 749 755 760 763 767 772 777 780 783 787 791 793 796 799 802 805 808 811 813 816 819 821 823 827 828 830 832 834 835 836 836 837 838 839 840 840 841 842 842 843 843 844 845 846 847 848 848 849 849 849 849
687 693 703 710 705 700 696 691 692 694 690 695 704 702 700 703 709 725 734 722 714 715 711 719 736 731 714 707 708 710 714 718 726 736 743 749 755 760 764 769 773 776 778 782 787 791 794 798 801 803 805 809 812 815 818 821 822 826 828 829 829 832 834 836 836 837 838 839 840 841 842 843 843 844 844 845 846 847 847 848 849 849 850 850 851 851
689 693 701 706 699 693 693 690 691 692 690 697 702 699 698 699 702 711 714 712 719 720 714 724 740 736 723 714 710 709 711 719 729 736 742 750 756 761 766 770 773 776 779 783 788 792 796 799 800 803 806 810 814 817 819 822 824 827 829 830 831 834 836 836 837 838 839 840 841 842 843 844 844 845 846 846 847 848 849 849 850 851 851 851 852 852
697 699 699 705 708 709 707 703 702 700 696 699 700 697 698 696 699 708 706 708 721 722 716 729 743 736 725 720 716 712 715 725 732 736 742 750 756 763 767 770 773 777 780 784 788 792 796 798 800 804 808 811 814 817 820 823 826 828 830 832 834 836 837 838 838 840 840 841 843 843 844 845 846 846 847 848 849 849 850 850 851 852 852 852 853 853
699 696 692 703 717 721 717 712 710 705 700 700 697 697 699 697 700 709 713 719 727 721 713 721 735 738 729 724 722 719 722 730 734 738 745 751 758 764 767 770 774 777 781 784 788 793 796 798 801 805 809 812 815 818 821 824 827 829 831 833 835 837 838 838 839 840 841 842 843 844 845 846 847 848 848 849 850 850 851 851 852 852 853 853 854 854
697 691 685 694 703 703 703 703 699 697 702 706 702 699 700 700 700 703 715 724 721 719 721 715 721 737 736 728 726 724 725 732 736 742 749 755 761 765 767 771 774 777 781 784 788 793 796 799 803 806 810 814 816 819 822 825 827 829 832 834 836 837 838 839 840 841 842 843 844 845 846 847 848 849 850 851 851 852 852 853 853 853 854 855 855 855
698 695 688 690 691 686 686 690 690 693 701 705 705 703 700 700 701 705 715 718 711 722 730 713 710 731 733 725 725 724 725 731 738 746 753 758 763 765 767 771 775 779 782 784 789 793 796 800 804 807 810 814 817 819 822 825 827 829 832 834 836 837 838 839 840 841 842 843 845 846 847 848 849 850 851 852 852 853 853 854 854 854 855 856 856 857
697 698 693 691 694 692 686 683 683 689 696 699 701 704 701 701 705 709 713 710 708 721 725 709 709 723 723 719 721 722 724 729 738 749 756 760 764 767 769 773 777 780 783 785 789 793 796 801 804 807 810 813 816 819 821 825 826 829 832 834 836 837 838 839 840 841 843 844 846 847 848 849 850 851 852 853 853 854 854 855 855 856 856 857 858 858
696 699 694 693 701 704 696 686 682 688 695 697 699 701 702 704 704 708 711 708 709 716 714 710 715 716 713 716 719 720 724 729 739 751 757 761 764 767 771 776 778 781 783 786 789 792 797 800 803 808 811 813 815 818 821 824 825 828 832 834 835 837 837 839 840 841 843 845 846 848 849 850 851 852 853 854 854 855 856 856 857 857 858 858 859 859
699 700 694 694 706 710 703 697 694 696 698 700 700 699 700 705 706 708 711 710 715 718 712 713 721 717 708 708 712 718 723 729 740 750 755 759 762 765 770 774 777 780 783 787 789 791 796 800 803 807 810 813 815 818 821 823 825 828 832 834 835 835 837 839 840 842 844 846 847 849 850 851 852 853 854 854 855 856 857 858 859 859 859 859 860 860
702 702 696 699 710 710 705 705 704 701 703 705 705 701 700 705 708 709 710 710 714 718 717 719 725 720 711 706 710 719 724 731 740 747 751 755 759 763 768 770 774 778 782 786 789 792 796 800 804 807 810 813 816 818 821 823 825 828 831 833 834 835 837 839 840 843 844 846 848 849 850 852 852 853 854 855 856 857 858 860 861 861 861 861 861 861
700 703 701 704 713 710 703 704 706 710 718 719 708 700 699 702 703 706 707 707 709 712 717 722 720 714 712 712 717 724 727 731 737 741 746 752 757 762 765 767 773 777 781 787 791 794 798 801 805 808 811 814 817 819 821 823 825 828 830 832 834 835 838 839 841 843 845 847 849 850 851 852 853 854 856 857 858 859 860 862 863 863 863 863 863 862
697 699 699 702 710 710 703 704 713 724 730 722 705 697 698 698 699 704 706 705 705 706 708 712 710 707 709 713 718 723 725 727 732 736 741 748 756 761 763 765 771 777 782 787 791 795 798 800 804 807 810 814 817 819 822 824 826 828 829 832 834 836 838 840 842 844 846 848 849 851 852 853 854 856 857 858 859 860 861 863 864 864 864 864 864 863
699 698 696 697 703 705 704 713 729 735 726 714 705 701 700 697 696 701 702 699 701 704 704 707 707 704 707 711 713 717 720 724 730 734 738 744 752 758 761 765 771 776 781 785 789 794 797 799 802 806 809 813 816 819 822 824 827 828 830 832 834 836 839 841 843 845 847 849 850 851 853 854 855 857 858 859 861 861 863 864 865 865 865 865 865 864
702 702 698 696 699 705 713 724 733 728 715 709 710 707 705 704 701 705 709 702 699 703 705 707 706 704 705 709 709 713 720 725 731 734 736 741 748 754 759 764 769 773 778 783 787 791 794 797 800 804 808 812 816 819 822 824 826 828 829 832 834 837 840 842 844 846 847 849 850 852 853 855 856 858 859 860 862 863 864 865 865 866 865 865 865 865
698 701 699 700 700 704 713 717 717 719 717 714 713 707 704 705 704 708 715 709 700 701 702 704 705 704 705 709 712 716 723 728 734 736 736 739 745 750 755 760 765 771 776 782 786 790 794 798 800 803 807 812 816 819 822 824 825 826 828 832 835 837 840 842 844 846 848 849 851 852 854 856 857 859 860 861 863 864 865 866 866 866 866 865 865 865
694 697 697 702 704 704 710 712 713 722 722 710 703 699 698 700 697 700 712 711 701 698 700 701 703 703 707 713 717 720 726 734 738 736 734 738 744 748 753 757 763 769 775 779 785 789 794 798 800 803 808 812 816 819 821 823 824 825 828 832 835 838 840 842 844 846 848 849 851 853 855 857 858 859 861 862 864 865 866 866 866 866 866 866 865 865
691 693 693 700 707 709 714 716 714 717 712 700 697 696 697 699 695 699 716 716 697 692 696 698 700 703 708 715 719 722 729 734 733 729 730 736 742 748 752 756 761 769 774 778 782 787 792 796 800 804 809 812 815 818 820 822 822 824 828 832 835 838 840 842 845 846 848 850 852 854 856 858 859 860 862 863 864 865 866 866 866 866 865 865 865 865
696 698 699 704 708 708 714 715 707 705 703 698 698 698 696 696 697 711 728 717 690 686 693 694 698 703 707 713 718 721 725 725 721 721 727 735 742 748 752 755 761 768 773 778 782 786 790 795 800 803 807 811 814 817 819 820 822 824 828 832 835 838 840 843 845 847 849 851 853 855 857 858 860 862 863 864 865 865 866 866 866 866 866 865 865 865
706 705 704 707 706 705 713 716 706 702 701 696 694 695 695 698 707 719 724 709 691 688 691 691 697 702 706 712 716 717 718 717 715 718 725 734 742 748 752 758 764 771 775 779 783 786 791 796 799 802 806 810 813 816 818 819 821 825 829 832 835 838 840 843 845 847 850 852 853 856 857 859 861 862 863 865 865 865 866 866 866 866 866 865 865 865
711 711 707 707 705 701 706 711 708 705 702 694 692 694 696 705 716 715 708 701 698 695 692 693 697 701 706 712 713 714 716 717 718 721 727 734 740 746 752 759 767 772 776 780 783 787 791 796 799 802 807 810 812 815 817 819 822 826 829 832 835 838 841 843 846 848 850 852 854 856 858 860 862 863 864 865 865 866 866 866 866 866 865 865 865 864
703 710 709 706 705 703 704 709 712 710 702 692 693 699 702 708 712 706 699 700 700 697 697 699 699 701 708 713 714 716 719 720 722 726 730 735 740 746 753 759 766 771 775 779 783 787 791 794 798 802 806 809 811 814 816 819 822 826 829 832 835 839 841 844 846 848 850 852 855 857 859 861 862 863 864 865 865 866 866 866 866 865 865 864 864 864
694 703 705 700 699 702 706 710 708 703 695 691 694 701 703 705 705 702 700 701 700 699 701 702 703 706 710 713 717 720 722 723 725 728 731 736 742 748 754 759 765 771 776 780 784 787 790 793 797 802 806 808 810 813 816 819 823 826 829 833 836 839 842 844 846 848 850 853 855 857 859 861 862 863 864 864 865 865 865 865 865 865 864 864 864 864
697 697 700 699 695 695 700 705 703 696 693 694 697 700 701 703 704 703 701 700 701 701 701 702 707 710 710 714 719 722 723 724 726 729 734 739 745 750 755 759 764 771 777 781 785 787 790 793 796 801 804 807 810 813 816 820 823 826 829 833 836 839 841 844 846 849 851 853 855 857 859 860 862 863 863 864 864 865 865 865 864 864 864 864 864 864
699 696 699 702 700 697 696 698 698 697 697 699 701 702 702 704 705 704 703 702 703 703 702 703 708 710 711 715 720 722 723 725 727 732 739 744 749 753 757 761 766 772 776 780 784 787 790 793 797 800 803 807 810 814 817 820 823 826 829 832 836 839 841 844 846 849 851 853 855 857 858 860 861 862 863 863 864 864 864 864 864 864 864 864 864 864
695 695 697 699 702 705 703 696 693 697 700 700 702 703 704 705 705 705 705 705 705 705 705 705 708 710 712 715 719 722 723 725 730 738 743 747 751 754 757 762 767 772 775 779 782 786 789 793 796 799 802 806 810 814 817 821 824 827 830 832 836 839 841 844 846 849 851 853 855 856 858 859 860 861 862 862 862 863 863 863 864 864 864 864 864 864
697 698 698 697 698 701 701 697 695 698 699 698 700 702 702 704 706 706 707 707 707 707 708 707 709 711 713 715 719 722 724 726 733 740 744 748 751 753 758 764 768 771 775 778 781 784 788 791 795 798 802 806 810 814 818 821 824 827 830 832 836 839 841 844 846 848 850 852 854 855 857 858 859 860 860 861 861 862 863 863 864 865 865 865 865 865
703 700 696 696 697 696 697 697 697 699 701 699 699 701 700 703 706 708 708 709 709 709 711 710 711 713 715 717 720 724 726 729 734 740 744 746 749 753 759 764 768 771 775 777 780 783 786 789 794 798 802 806 810 814 817 820 824 827 829 832 835 838 841 844 846 848 850 852 853 854 856 858 858 858 859 860 861 862 863 864 864 865 866 867 867 866
699 699 695 696 700 701 702 700 697 701 707 704 700 701 703 704 707 709 710 710 710 711 712 713 713 715 717 718 720 725 728 731 735 741 744 745 748 754 759 764 767 771 774 776 780 783 786 790 794 798 802 807 810 814 817 820 824 827 829 832 835 838 841 843 846 848 849 851 852 854 855 856 857 857 858 860 861 863 864 865 866 866 867 867 867 867
697 701 703 706 708 707 705 701 697 701 708 707 703 703 704 706 708 709 710 710 711 712 712 714 716 718 719 719 720 724 728 732 736 741 744 746 750 755 760 764 767 770 772 775 779 782 786 791 795 798 802 806 810 813 816 819 823 827 829 831 834 837 840 843 845 847 848 849 851 853 854 855 855 856 857 859 860 862 864 865 866 867 867 868 868 868